This demonstration page uses our WeatherBlox Daily Observations layout. Learn more.

Hourly Observations for December 24, 2019

Temp ( °F °C ) Dew Point ( °F °C ) Humidity (%) Winds ( mph kmh ) Pressure ( in mb ) Visibility ( mi km ) Precip ( " mm )
12:15 am 00:15 Clear 32 0 30 -1 93 93 Calm 30.06 1018 10 16.0934 0 0
12:35 am 00:35 Clear 30 -1 28 -2 93 93 Calm 30.05 1018 10 16.0934 0 0
12:55 am 00:55 Clear 32 0 30 -1 93 93 N 3 6 30.05 1018 10 16.0934 0 0
1:15 am 01:15 Clear 30 -1 28 -2 93 93 N 3 6 30.05 1018 10 16.0934 0 0
1:35 am 01:35 Clear 30 -1 30 -1 100 100 Calm 30.06 1018 10 16.0934 0 0
1:55 am 01:55 Clear 32 0 30 -1 93 93 NNE 3 6 30.06 1018 10 16.0934 0 0
2:15 am 02:15 Clear 30 -1 28 -2 93 93 N 5 7 30.07 1018 10 16.0934 0 0
2:35 am 02:35 Clear 30 -1 28 -2 93 93 N 5 7 30.07 1018 10 16.0934 0 0
2:55 am 02:55 Clear 30 -1 30 -1 100 100 NNE 3 6 30.07 1018 10 16.0934 0 0
3:15 am 03:15 Clear 30 -1 28 -2 93 93 Calm 30.08 1019 10 16.0934 0 0
3:35 am 03:35 Clear 28 -2 28 -2 100 100 Calm 30.09 1019 10 16.0934 0 0
3:55 am 03:55 Clear 28 -2 28 -2 100 100 NNE 5 7 30.09 1019 10 16.0934 0 0
4:15 am 04:15 Clear 28 -2 28 -2 100 100 N 3 6 30.09 1019 10 16.0934 0 0
4:35 am 04:35 Clear 28 -2 28 -2 100 100 Calm 30.08 1018 10 16.0934 0 0
4:55 am 04:55 Clear 28 -2 28 -2 100 100 NW 5 7 30.08 1018 10 16.0934 0 0
5:15 am 05:15 Clear 28 -2 28 -2 100 100 NNW 5 7 30.08 1018 10 16.0934 0 0
5:35 am 05:35 Clear 28 -2 28 -2 100 100 NW 7 11 30.08 1018 10 16.0934 0 0
5:55 am 05:55 Clear 28 -2 28 -2 100 100 NW 7 11 30.09 1019 10 16.0934 0 0
6:15 am 06:15 Clear 28 -2 28 -2 100 100 NW 8 13 30.09 1019 10 16.0934 0 0
6:35 am 06:35 Clear 37 3 32 0 81 81 NNW 10 17 30.09 1019 10 16.0934 0 0
6:55 am 06:55 Clear 36 2 32 0 87 87 NNW 10 17 30.1 1019 10 16.0934 0 0
7:15 am 07:15 Clear 36 2 32 0 87 87 undefined N/A 30.1 1019 10 16.0934 0 0
7:35 am 07:35 Sunny 37 3 32 0 81 81 NNW 7 11 30.11 1020 10 16.0934 0 0
7:55 am 07:55 Sunny 37 3 32 0 81 81 NNW 8 13 30.12 1020 10 16.0934 0 0
8:15 am 08:15 Sunny 37 3 32 0 81 81 N 6 9 30.13 1020 10 16.0934 0 0
8:35 am 08:35 Sunny 43 6 34 1 71 71 Calm 30.13 1020 10 16.0934 0 0
8:55 am 08:55 Sunny 43 6 34 1 71 71 N 5 7 30.14 1021 10 16.0934 0 0
9:15 am 09:15 Sunny 41 5 34 1 76 76 NNE 9 15 30.16 1021 10 16.0934 0 0
9:35 am 09:35 Sunny 41 5 34 1 76 76 NNE 9 15 30.17 1022 10 16.0934 0 0
9:55 am 09:55 Sunny 41 5 34 1 76 76 NNE 12 19 30.16 1021 10 16.0934 0 0
10:15 am 10:15 Sunny 43 6 36 2 76 76 NE 10 17 30.16 1021 10 16.0934 0 0
10:35 am 10:35 Sunny 43 6 36 2 76 76 NNE 6 9 30.16 1021 10 16.0934 0 0
10:55 am 10:55 Sunny 45 7 36 2 71 71 NNE 6 9 30.16 1021 10 16.0934 0 0
11:15 am 11:15 Sunny 45 7 36 2 71 71 NNE 9 15 30.16 1021 10 16.0934 0 0
11:35 am 11:35 Sunny 46 8 36 2 66 66 NE 12 19 30.15 1021 10 16.0934 0 0
11:55 am 11:55 Sunny 46 8 36 2 66 66 NNE 10 17 30.14 1021 10 16.0934 0 0
12:15 pm 12:15 Sunny 46 8 36 2 66 66 NNE 10 17 30.14 1021 10 16.0934 0 0
12:35 pm 12:35 Sunny 48 9 36 2 62 62 NE 8 13 30.13 1020 10 16.0934 0 0
12:55 pm 12:55 Sunny 48 9 36 2 62 62 NNE 8 13 30.13 1020 10 16.0934 0 0
1:15 pm 13:15 Sunny 50 10 36 2 58 58 NNE 9 15 30.12 1020 10 16.0934 0 0
1:35 pm 13:35 Sunny 50 10 36 2 58 58 NNE 6 9 30.12 1020 10 16.0934 0 0
1:55 pm 13:55 Sunny 50 10 34 1 54 54 NE 13 20 30.12 1020 10 16.0934 0 0
2:15 pm 14:15 Sunny 50 10 34 1 54 54 NE 10 17 30.13 1020 10 16.0934 0 0
2:35 pm 14:35 Sunny 50 10 34 1 54 54 N 6 9 30.13 1020 10 16.0934 0 0
2:55 pm 14:55 Sunny 50 10 34 1 54 54 NE 6 9 30.14 1021 10 16.0934 0 0
3:15 pm 15:15 Sunny 50 10 34 1 54 54 NNE 7 11 30.14 1021 10 16.0934 0 0
3:35 pm 15:35 Sunny 50 10 34 1 54 54 NNE 6 9 30.14 1021 10 16.0934 0 0
3:55 pm 15:55 Sunny 50 10 34 1 54 54 NE 6 9 30.15 1021 10 16.0934 0 0
4:15 pm 16:15 Sunny 48 9 34 1 58 58 NNE 7 11 30.15 1021 10 16.0934 0 0
4:35 pm 16:35 Sunny 46 8 34 1 62 62 NNE 7 11 30.15 1021 10 16.0934 0 0
4:55 pm 16:55 Clear 46 8 34 1 62 62 NNE 7 11 30.16 1021 10 16.0934 0 0
5:15 pm 17:15 Clear 45 7 32 0 61 61 NE 7 11 30.16 1021 10 16.0934 0 0
5:35 pm 17:35 Clear 45 7 32 0 61 61 NE 7 11 30.16 1021 10 16.0934 0 0
5:55 pm 17:55 Clear 45 7 32 0 61 61 NE 6 9 30.17 1022 10 16.0934 0 0
6:15 pm 18:15 Clear 43 6 32 0 66 66 NNE 6 9 30.17 1022 10 16.0934 0 0
6:35 pm 18:35 Clear 43 6 32 0 66 66 NE 5 7 30.17 1022 10 16.0934 0 0
6:55 pm 18:55 Clear 41 5 32 0 70 70 NNE 5 7 30.17 1022 10 16.0934 0 0
7:15 pm 19:15 Clear 39 4 32 0 75 75 Calm 30.18 1022 10 16.0934 0 0
7:35 pm 19:35 Clear 39 4 32 0 75 75 N 5 7 30.2 1023 10 16.0934 0 0
7:55 pm 19:55 Clear 39 4 32 0 75 75 NNE 3 6 30.19 1022 10 16.0934 0 0
8:15 pm 20:15 Clear 34 1 30 -1 87 87 Calm 30.2 1023 10 16.0934 0 0
8:35 pm 20:35 Clear 32 0 32 0 100 100 Calm 30.19 1022 10 16.0934 0 0
8:55 pm 20:55 Clear 32 0 30 -1 93 93 NNE 5 7 30.2 1023 10 16.0934 0 0
9:15 pm 21:15 Clear 32 0 32 0 100 100 NNE 3 6 30.2 1023 10 16.0934 0 0
9:35 pm 21:35 Clear 32 0 30 -1 93 93 Calm 30.2 1023 10 16.0934 0 0
9:55 pm 21:55 Clear 30 -1 30 -1 100 100 NNE 3 6 30.21 1023 10 16.0934 0 0
10:15 pm 22:15 Clear 30 -1 30 -1 100 100 N 3 6 30.21 1023 10 16.0934 0 0
10:35 pm 22:35 Clear 30 -1 28 -2 93 93 N 3 6 30.21 1023 10 16.0934 0 0
10:55 pm 22:55 Clear 30 -1 28 -2 93 93 Calm 30.21 1023 7 11.26538 0 0
11:15 pm 23:15 Clear 30 -1 28 -2 93 93 Calm 30.2 1023 10 16.0934 0 0
11:35 pm 23:35 Clear 28 -2 27 -3 93 93 W 3 6 30.21 1023 7 11.26538 0 0
11:55 pm 23:55 Clear 28 -2 28 -2 100 100 W 3 6 30.21 1023 7 11.26538 0 0

Powered by AerisWeather